This is the latest recevied weather packets stored in our database for station/object W1LBM. If no packets are shown the sender has not sent any weather packets the latest 10 day(s).
| Time | Temp. | Humidity | Pressure | Rain* | Wind** | Luminosity | Snow |
|---|---|---|---|---|---|---|---|
| 1777592579 | 11.11° C | 95% | 1009.5 hPa | 0 mm | - | 2 W/m² | - |
| 1777592274 | 11.11° C | 94% | 1009.5 hPa | 0 mm | - | 3 W/m² | - |
| 1777591970 | 11.11° C | 94% | 1009.5 hPa | 0 mm | - | 5 W/m² | - |
| 1777591666 | 11.67° C | 93% | 1009.5 hPa | 0 mm | - | 7 W/m² | - |
| 1777591363 | 11.67° C | 93% | 1009.3 hPa | 0 mm | - | 10 W/m² | - |
| 1777591059 | 11.67° C | 93% | 1009.5 hPa | 0 mm | - | 11 W/m² | - |
| 1777590755 | 11.67° C | 93% | 1009.5 hPa | 0 mm | - | 10 W/m² | - |
| 1777590450 | 11.67° C | 93% | 1009.4 hPa | 0 mm | - | 7 W/m² | - |
| 1777590148 | 11.67° C | 93% | 1009.3 hPa | 0 mm | - | 6 W/m² | - |
| 1777589844 | 11.67° C | 92% | 1009.4 hPa | 0 mm | - | 6 W/m² | - |
| 1777589539 | 11.67° C | 92% | 1009.4 hPa | 0 mm | - | 10 W/m² | - |
| 1777589238 | 11.67° C | 92% | 1009.1 hPa | 0 mm | - | 12 W/m² | - |
| 1777588935 | 11.67° C | 92% | 1009.2 hPa | 0 mm | - | 17 W/m² | - |
| 1777588631 | 11.67° C | 91% | 1009.1 hPa | 0 mm | - | 17 W/m² | - |
| 1777588326 | 11.67° C | 90% | 1009 hPa | 0 mm | - | 15 W/m² | - |
| 1777588022 | 11.67° C | 91% | 1009.1 hPa | 0 mm | - | 17 W/m² | - |
| 1777587717 | 11.67° C | 90% | 1009.1 hPa | 0 mm | - | 18 W/m² | - |
| 1777587412 | 11.67° C | 91% | 1008.9 hPa | 0 mm | - | 21 W/m² | - |
| 1777587109 | 11.67° C | 90% | 1009 hPa | 0 mm | - | 17 W/m² | - |
| 1777586805 | 11.67° C | 90% | 1009 hPa | 0 mm | - | 20 W/m² | - |
| 1777586500 | 11.67° C | 91% | 1008.9 hPa | 0 mm | - | 26 W/m² | - |
| 1777586196 | 11.67° C | 91% | 1008.9 hPa | 0 mm | - | 33 W/m² | - |
| 1777585894 | 11.67° C | 89% | 1008.9 hPa | 0 mm | - | 25 W/m² | - |
| 1777585594 | 11.67° C | 89% | 1009 hPa | 0 mm | - | 17 W/m² | - |
| 1777585290 | 11.67° C | 89% | 1008.8 hPa | 0 mm | - | 17 W/m² | - |
* Rain latest hour (hover to see other rain measurements)
** Current wind speed in m/s (hover to see current wind gust speed)